Location: Unspecified
(0.0000°N, 0.0000°E)
Time: 14:29:32
(UTC+00:00)

Vanguard 1 - All Passes

Search period start: 25 April 2018 00:00
Search period end: 05 May 2018 00:00
Orbit: 650 x 3833 km, 34.2° (Epoch: 24 April)

Date Brightness Start Highest point End Pass type
(mag) Time Alt. Az. Time Alt. Az. Time Alt. Az.
25 Apr - 03:49:23 10° NNW 03:57:42 33° NE 04:11:32 10° E visible
25 Apr - 06:08:09 10° WNW 06:20:42 81° SW 06:42:46 10° SE daylight
25 Apr - 08:32:31 10° W 08:48:37 37° SSW 09:09:27 10° SE daylight
25 Apr - 11:06:41 10° SW 11:21:52 20° S 11:35:59 10° SSE daylight
25 Apr - 13:42:08 10° SSW 13:55:43 21° S 14:05:37 10° SE daylight
25 Apr - 16:09:16 10° SW 16:23:23 42° SSE 16:31:15 10° E daylight
25 Apr - 18:35:43 10° WSW 18:45:26 49° NW 18:51:03 10° NNE visible
26 Apr - 04:09:35 10° NNW 04:18:36 46° NE 04:34:43 10° ESE visible
26 Apr - 06:29:24 10° WNW 06:42:20 65° SW 07:04:20 10° SE daylight
26 Apr - 08:55:34 10° WSW 09:11:27 31° SSW 09:30:50 10° SSE daylight
26 Apr - 11:31:13 10° SW 11:45:49 19° S 11:58:46 10° SE daylight
26 Apr - 14:03:53 10° SSW 14:18:40 25° SSE 14:28:43 10° ESE daylight
26 Apr - 16:30:30 10° SW 16:45:01 57° SSE 16:52:43 10° ENE daylight
26 Apr - 18:58:07 10° WSW 19:06:08 31° NW 19:11:16 10° NNE visible
27 Apr - 02:15:28 10° NNE 02:18:09 12° NE 02:21:15 10° ENE visible
27 Apr - 04:30:02 10° NW 04:39:32 63° NE 04:57:19 10° ESE visible
27 Apr - 06:50:58 10° WNW 07:04:15 52° SSW 07:25:45 10° SE daylight
27 Apr - 09:19:09 10° WSW 09:34:40 26° SSW 09:52:29 10° SSE daylight
27 Apr - 11:55:05 10° SW 12:09:46 19° S 12:22:09 10° SE daylight
27 Apr - 14:25:18 10° SW 14:41:16 30° SSE 14:51:23 10° ESE daylight
27 Apr - 16:51:57 10° SW 17:06:24 79° SE 17:13:51 10° ENE daylight
27 Apr - 19:21:17 10° W 19:26:51 18° NW 19:30:57 10° N visible
28 Apr - 02:33:48 10° N 02:39:12 19° NE 02:46:52 10° E visible
28 Apr - 04:50:45 10° NW 05:00:37 83° NE 05:19:27 10° SE visible
28 Apr - 07:12:56 10° W 07:26:27 42° SSW 07:47:06 10° SE daylight
28 Apr - 09:43:12 10° WSW 09:58:16 22° SSW 10:14:33 10° SSE daylight
28 Apr - 12:18:05 10° SSW 12:33:30 21° S 12:45:48 10° SE daylight
28 Apr - 14:46:35 10° SW 15:03:34 39° SSE 15:13:34 10° E daylight
28 Apr - 17:13:41 10° WSW 17:27:30 75° NW 17:34:40 10° NE daylight
28 Apr - 19:47:02 10° NW 19:47:42 10° NW 19:48:22 10° NW visible
29 Apr - 02:53:27 10° NNW 03:00:03 29° NE 03:10:44 10° E visible
29 Apr - 05:11:42 10° WNW 05:21:55 77° SW 05:41:15 10° SE visible
29 Apr - 07:35:21 10° W 07:48:58 34° SSW 08:08:28 10° SE daylight
29 Apr - 10:07:25 10° SW 10:22:11 20° S 10:37:15 10° SE daylight
29 Apr - 12:40:20 10° SSW 12:56:55 24° SSE 13:09:19 10° ESE daylight
29 Apr - 15:07:53 10° SW 15:25:33 50° SSE 15:35:21 10° ENE daylight
29 Apr - 17:35:49 10° WSW 17:48:21 51° NW 17:55:13 10° NE daylight
30 Apr - 03:13:33 10° NNW 03:20:49 43° NE 03:33:47 10° ESE visible
30 Apr - 05:32:55 10° WNW 05:43:29 60° SSW 06:02:47 10° SE visible
30 Apr - 07:58:15 10° WSW 08:11:49 28° SSW 08:30:01 10° SSE daylight
30 Apr - 10:31:23 10° SW 10:46:14 20° S 11:00:38 10° SE daylight
30 Apr - 13:02:05 10° SSW 13:19:56 29° SSE 13:32:28 10° ESE daylight
30 Apr - 15:29:18 10° SW 15:47:15 65° SSE 15:56:45 10° ENE daylight
30 Apr - 17:58:25 10° WSW 18:09:06 34° NW 18:15:28 10° NNE daylight
01 May - 03:33:57 10° NW 03:41:38 62° NE 03:56:14 10° ESE visible
01 May - 05:54:29 10° W 06:05:21 47° SSW 06:24:10 10° SE daylight
01 May - 08:21:39 10° WSW 08:35:03 24° SSW 08:51:54 10° SSE daylight
01 May - 10:54:41 10° SW 11:10:16 21° S 11:24:31 10° SE daylight
01 May - 13:23:34 10° SW 13:42:37 36° SSE 13:55:07 10° E daylight
01 May - 15:50:54 10° SW 16:08:40 85° SE 16:17:51 10° NE daylight
01 May - 18:21:44 10° W 18:29:52 22° NW 18:35:19 10° N visible
02 May - 01:38:21 10° N 01:42:05 15° NE 01:46:55 10° ENE visible
02 May - 03:54:38 10° NW 04:02:38 85° NE 04:18:14 10° SE visible
02 May - 06:16:25 10° W 06:27:31 37° SSW 06:45:30 10° SE daylight
02 May - 08:45:24 10° SW 08:58:39 21° S 09:14:20 10° SE daylight
02 May - 11:17:16 10° SSW 11:34:03 23° SSE 11:48:32 10° ESE daylight
02 May - 13:44:55 10° SW 14:04:58 44° SSE 14:17:18 10° E daylight
02 May - 16:12:48 10° WSW 16:29:50 74° NW 16:38:40 10° NE daylight
02 May - 18:46:16 10° WNW 18:50:45 14° NW 18:54:20 10° NNW visible
03 May - 01:57:41 10° N 02:02:53 25° NE 02:10:45 10° E visible
03 May - 04:15:35 10° WNW 04:23:52 71° SW 04:39:54 10° SE visible
03 May - 06:38:49 10° WSW 06:49:58 30° SSW 07:06:53 10° SSE daylight
03 May - 09:09:08 10° SW 09:22:33 20° S 09:37:31 10° SE daylight
03 May - 11:39:16 10° SSW 11:57:30 27° SSE 12:12:16 10° ESE daylight
03 May - 14:06:17 10° SW 14:27:01 56° SSE 14:39:03 10° ENE daylight
03 May - 16:35:05 10° WSW 16:50:47 54° NW 16:59:14 10° NE daylight
04 May - 02:17:41 10° NNW 02:23:35 40° NE 02:33:36 10° ESE visible
04 May - 04:36:50 10° WNW 04:45:24 53° SSW 05:01:19 10° SE visible
04 May - 07:01:41 10° WSW 07:12:46 24° SSW 07:28:27 10° SSE daylight
04 May - 09:32:32 10° SW 09:46:34 20° S 10:01:30 10° SE daylight
04 May - 12:00:52 10° SW 12:20:33 32° SSE 12:35:32 10° E daylight
04 May - 14:27:45 10° SW 14:48:46 71° SE 15:00:28 10° ENE daylight
04 May - 16:57:52 10° WSW 17:11:37 38° NW 17:19:33 10° NNE daylight
